Regional Weather Roundup
Issued by NWS Green Bay, WI

Home | Current Version | Previous Version | Text Only | Print | Product List | Glossary On
Versions: 1 2 3 4 5 6 7 8 9 10 11 12 13 14 15 16 17 18 19 20 21 22 23 24 25 26 27 28 29 30 31 32 33 34 35 36 37 38 39 40 41 42 43 44 45 46 47 48 49 50
000
ASUS43 KGRB 201410
RWRGRB

NORTH-CENTRAL AND NORTHEAST WISCONSIN REGIONAL WEATHER ROUNDUP
NATIONAL WEATHER SERVICE GREEN BAY WI
900 AM CDT SAT SEP 20 2014

WIZ005-009-010>012-018-019-201500-
NORTH CENTRAL WISCONSIN

CITY           SKY/WX    TMP DP  RH WIND       PRES   REMARKS
IRONWOOD       CLOUDY    64  63  94 W14G21    29.63R
MANITOWISH WTR CLOUDY    66  62  86 W10G18    29.67R
ARBOR VITAE    PTSUNNY   69  64  84 W9G18     29.67S
EAGLE RIVER    CLOUDY    67  60  79 W12       29.66R
LAND O LAKES   CLOUDY    68  62  81 W12G17    29.66R
RHINELANDER    CLOUDY    66  61  84 W13       29.69R
PHILLIPS       CLOUDY    66  62  88 W6        29.69R
ANTIGO         CLOUDY    64  61  90 W14G22    29.70F
TOMAHAWK       CLOUDY    66  61  82 W10       29.70S
MERRILL        CLOUDY    66  63  90 W12G17    29.70S
$$

WIZ013-073-201500-
NORTHEAST WISCONSIN

CITY           SKY/WX    TMP DP  RH WIND       PRES   REMARKS
IRON MOUNTAIN  CLOUDY    68  62  81 SW13      29.62S
MARINETTE      CLOUDY    66  61  82 SW9       29.64S
OCONTO         CLOUDY    65  64  97 SW12      29.66F
$$

WIZ017-030-035>037-045-201500-
CENTRAL WISCONSIN

CITY           SKY/WX    TMP DP  RH WIND       PRES   REMARKS
MEDFORD        CLOUDY    64  62  92 W9        29.72R
WAUSAU         CLOUDY    66  62  87 W12       29.69S
MOSINEE        CLOUDY    64  64 100 W12G18    29.72S
MARSHFIELD     PTSUNNY   66  62  87 W12       29.72S
WISC RAPIDS    SUNNY     65  62  90 SW9       29.74S
STEVENS POINT  CLOUDY    64  61  91 SW7       29.73R
WAUPACA        MOSUNNY   66  65  96 S10       29.73S
SHAWANO        MOSUNNY   68  63  85 SW7       29.69S
CLINTONVILLE   PTSUNNY   64  63  94 SW10      29.70S
$$

WIZ038-039-048-051-201500-
FOX VALLEY

CITY           SKY/WX    TMP DP  RH WIND       PRES   REMARKS
NWS GREEN BAY  CLOUDY    65  63  93 SW10G21   29.71S
APPLETON       PTSUNNY   64  63  94 SW15      29.74S
OSHKOSH        CLOUDY    66  62  87 SW12G21   29.74F
FOND DU LAC    CLOUDY    64  61  90 SW13G20   29.76F
$$

WIZ022-050-052-201500-
EAST CENTRAL WISCONSIN

CITY           SKY/WX    TMP DP  RH WIND       PRES   REMARKS
STURGEON BAY   CLOUDY    64  61  88 SW15G22   29.68R
MANITOWOC      CLOUDY    67  62  84 SW13      29.73F
SHEBOYGAN      CLOUDY    66  60  81 SW16      29.75F
$$

LMZ563-521-522-541>543-201500-
LAKESHORE

STATION/POSITION TIME  TEMP    WIND        PRES    VSBY  WAVE
                       AIR SEA DIR/SP/G                  HT/PER
                 (UTC) (F)     (DEG/KT/KT) (MB)    (MI)  (FT/S)
SHEBOYGAN LKSHOR 1400   66 54  220/ 15/ 17 1007.6F
KEWAUNEE LKSHORE 1400   66     210/ 15/ 19 1005.4R
NORTHPORT PIER   1400   63     150/ 12/ 16 1004.4R
N MID LAKE BUOY  1400   59 58  200/ 19/ 23 1004.2F         6/ 7
S GREEN BAY BUOY 1400   62     VRB 12/ 16  1005.9F
CHAMBERS ISLAND  1400   62     170/  5/ 10 1004.1S
MENOMINEE LKSHOR 1400   65     220/ 10/ 15 1004.7S
$$



USA.gov is the U.S. government's official web portal to all federal, state and local government web resources and services.